AS428 Weather Reports


time (UTC)temp
C
wind
direction
speed
KPH
gust
KPH
rain 1hr
cm
rain 24hr
cm
rain mn
cm
humidity
%
barometer
mb
20260504035735 13 188 3.2 6.4 0.00 0.00 0.00 58 1013.7
20260504034737 13 202 1.6 1.6 0.00 0.00 0.00 58 1013.8
20260504032836 13 225 1.6 4.8 0.00 0.00 0.00 58 1014.0
20260504031836 13 194 0.0 1.6 0.00 0.00 0.00 57 1014.2
20260504030835 13 205 1.6 3.2 0.00 0.00 0.00 56 1014.3
20260504024939 14 183 3.2 4.8 0.00 0.00 0.00 55 1014.1
20260504024037 14 194 4.8 8.0 0.00 0.00 0.00 55 1014.1
20260504023037 14 199 3.2 6.4 0.00 0.00 0.00 55 1014.1
20260504021036 15 208 1.6 3.2 0.00 0.00 0.00 53 1014.2
20260504020037 15 190 4.8 8.0 0.00 0.00 0.00 53 1014.2
20260504015037 15 207 4.8 9.7 0.00 0.00 0.00 52 1014.2
20260504014036 15 211 4.8 8.0 0.00 0.00 0.00 51 1014.3
20260504013037 15 202 0.0 3.2 0.00 0.00 0.00 51 1014.2
20260504012037 15 204 6.4 9.7 0.00 0.00 0.00 50 1014.2
20260504011035 15 197 3.2 4.8 0.00 0.00 0.00 50 1014.4
20260504010037 15 225 1.6 6.4 0.00 0.00 0.00 49 1014.7
20260504005135 16 190 3.2 6.4 0.00 0.00 0.00 48 1014.7
20260504003237 16 220 3.2 4.8 0.00 0.00 0.00 47 1015.0
20260504002236 16 202 1.6 3.2 0.00 0.00 0.00 47 1014.9
20260504001238 16 255 3.2 6.4 0.00 0.00 0.00 47 1014.9
20260504000336 16 233 1.6 3.2 0.00 0.00 0.00 47 1014.9
20260503234337 16 236 6.4 12.9 0.00 0.00 0.00 45 1014.8
20260503233336 16 232 8.0 14.5 0.00 0.00 0.00 44 1014.4
20260503232335 17 239 4.8 9.7 0.00 0.00 0.00 45 1014.4
20260503231337 17 240 9.7 11.3 0.00 0.00 0.00 45 1014.4
20260503230436 17 232 1.6 4.8 0.00 0.00 0.00 45 1014.4
20260503225438 17 236 6.4 8.0 0.00 0.00 0.00 44 1014.4
20260503224536 17 231 6.4 19.3 0.00 0.00 0.00 45 1014.6
20260503222635 17 194 3.2 9.7 0.00 0.00 0.00 44 1014.7
20260503221637 17 209 6.4 11.3 0.00 0.00 0.00 45 1014.8
20260503220735 17 256 8.0 12.9 0.00 0.00 0.00 44 1015.1
20260503214836 17 205 9.7 16.1 0.00 0.00 0.00 43 1015.3
20260503213836 17 215 4.8 8.0 0.00 0.00 0.00 42 1015.5
20260503211837 17 234 8.0 16.1 0.00 0.00 0.00 42 1015.8
20260503205935 17 215 8.0 11.3 0.00 0.00 0.00 42 1016.6
20260503204937 17 223 4.8 9.7 0.00 0.00 0.00 41 1016.9
20260503203938 16 244 8.0 14.5 0.00 0.00 0.00 41 1017.1
20260503201936 17 219 11.3 17.7 0.00 0.00 0.00 42 1016.9
20260503200938 16 233 4.8 12.9 0.00 0.00 0.00 41 1017.2
20260503200837 16 237 8.0 14.5 0.00 0.00 0.00 42 1017.3
20260503195836 16 227 8.0 14.5 0.00 0.00 0.00 41 1017.1
20260503194836 16 208 4.8 8.0 0.00 0.00 0.00 42 1017.7
20260503191934 16 247 11.3 16.1 0.00 0.00 0.00 41 1018.1
20260503190937 16 224 8.0 14.5 0.00 0.00 0.00 41 1018.2
20260503185936 16 213 6.4 16.1 0.00 0.00 0.00 41 1018.5
20260503185035 16 238 9.7 17.7 0.00 0.00 0.00 41 1018.5
20260503184037 16 197 6.4 14.5 0.00 0.00 0.00 42 1018.9
20260503183038 16 267 8.0 11.3 0.00 0.00 0.00 41 1019.2
20260503182038 16 236 9.7 12.9 0.00 0.00 0.00 42 1019.4
20260503180037 16 197 3.2 6.4 0.00 0.00 0.00 42 1019.8
20260503175038 16 279 3.2 8.0 0.00 0.00 0.00 42 1020.0
20260503174136 15 261 9.7 17.7 0.00 0.00 0.00 42 1020.2
20260503173136 15 242 6.4 8.0 0.00 0.00 0.00 42 1020.2
20260503172137 15 235 6.4 9.7 0.00 0.00 0.00 41 1020.3
20260503171137 15 238 8.0 16.1 0.00 0.00 0.00 40 1020.5
20260503170234 15 263 8.0 16.1 0.00 0.00 0.00 42 1020.4
20260503170136 15 236 6.4 11.3 0.00 0.00 0.00 42 1020.4
20260503150535 13 216 4.8 8.0 0.00 0.00 0.00 47 1022.0
20260503130638 6 247 3.2 6.4 0.00 0.00 0.00 79 1022.0
20260503090136 0 22 0.0 0.0 0.00 0.00 0.00 94 1019.9
20260503081337 0 22 0.0 0.0 0.00 0.00 0.00 94 1019.8
20260503081237 0 22 0.0 0.0 0.00 0.00 0.00 95 1019.9
20260503080236 0 22 0.0 0.0 0.00 0.00 0.00 95 1019.8
20260503072236 1 22 0.0 0.0 0.00 0.00 0.00 94 1019.8
20260503071237 1 22 0.0 0.0 0.00 0.00 0.00 92 1019.8
20260503070236 1 22 0.0 0.0 0.00 0.00 0.00 93 1020.0
20260503070136 1 22 0.0 0.0 0.00 0.00 0.00 92 1020.0
20260503060137 1 22 0.0 0.0 0.00 0.00 0.00 91 1020.3
20260503054236 1 22 0.0 0.0 0.00 0.00 0.00 90 1020.3
20260503053236 1 22 0.0 0.0 0.00 0.00 0.00 89 1020.5
20260503052335 2 22 0.0 0.0 0.00 0.00 0.00 90 1020.5
20260503050335 2 22 0.0 0.0 0.00 0.00 0.00 88 1020.6
20260503044435 2 22 0.0 0.0 0.00 0.00 0.00 85 1020.5
20260503043435 2 22 0.0 0.0 0.00 0.00 0.00 84 1020.6
20260503040436 2 22 0.0 0.0 0.00 0.00 0.00 81 1020.4